STARLINK-11505, 62469

Orbit data source: Space-Track

STARLINK-11505, 62469 is a payload satellite owned by SpaceX/Seattle (US) in LEO that was launched on Tue, 31 Dec 2024 UTC via an FALCON 9 launch vehicle from the Air Force Eastern Test Range (AFETR). Payload-class satellites include a variety of spacecraft equipped with specific instruments for various scientific and technological missions. These include communications satellites like Starlink; space stations such as the ISS; scientific satellites like the Hubble; Earth observation satellites from companies like Planet Labs, Umbra, and HawkEye 360; GPS; miniature CubeSats for education and research; and military/defense satellites.

Loading next visibility...
Identifier
62469, 2024-254H
Orbit
LEO
Last TLE update
8 hours ago
Origin
Manufacturer
SpaceX/Seattle
Mission
Operational Commercial Communications
Bus & Motor
STARLINK V2M, Unknown motor
Mass
730 kg wet, ~700 kg dry
Launch date (UTC)
2024-12-31 (6 months ago)
Launch vehicle
FALCON 9
Launch site
Air Force Eastern Test Range (AFETR)
Object type
Payload
Rocket body
Debris
Shape & HBR
Box + 2 Pan, 29 m
Radar Cross Section
36.964 m², Large (>1 m²)

Expand to show TLE details & history

TLE from 8 hours ago
0 STARLINK-11505
1 62469U 24254H   25181.91668981 -.00126852  00000-0 -99809-3 0  9993
2 62469  42.9998 300.4612 0001587 282.9115 136.1069 15.70889891  5844
Epoch: 2025-06-30T22:00Z
TLE epoch observation values (Epoch: 2025-06-30T22:00:01.999Z)
Latitude
35.9258°
Longitude
101.82519°
Altitude
358.734 km
Speed
7.699 km/s
True Right ascension
23h 24m 12s
True Declination
35° 45' 10"
Sunlit
Object was in daylight at epoch
Visualization orbit readout
Latitude
-34.8729°
Longitude
-82.87228°
Altitude
365.821 km
Speed
7.691 km/s
Apparent Right ascension
08h 44m 05s
Apparent Declination
-43° 52' 05"
Sunlit
Object is in daylight
Visualization observer readout
Local Sidereal Time
18:00:46
Azimuth
248.941° W
Elevation
-59.661°
Doppler factor
1
Orbital elements
Apogee altitude
359.403 km
Perigee altitude
357.265 km
Semi-major axis
6,736.471 km
Eccentricity
0.00016
Inclination
42.9998°
RAAN
300.4612°
Arg. of periapsis
282.9115°
True anomaly
Unknown
Mean anomaly
136.1069°
Eccentric anomaly
Unknown
Mean motion
3.9255 °/min
Orbital period
91.71 mins
BSTAR
-0.00099809
Loading maneuver chart data...
Loading SW <> Apogee altitude chart data...
Loading historical data...
Loading historical data...
Loading historical data...
Loading historical data...
Loading historical data...
Loading historical data...
Loading historical data...

STARLINK-11505 Visibility forecast

Observer location: undefined°, undefined°

Span
Click to sort rows by Start time (UTC) header in descending order
Start Az.
Max El. time (UTC)
Max El. Az.
Max El.
End time (UTC)
End Az.
5 mins2025-07-01 11:42:59.317Z227.052° WSW2025-07-01 11:44:59.317Z166.995° S36.697°2025-07-01 11:47:59.317Z79.03° E
4 mins2025-07-01 13:19:59.317Z289.479° WNW2025-07-01 13:20:59.317Z329.501° NNW36.264°2025-07-01 13:23:59.317Z68.337° E
4 mins2025-07-01 14:55:59.317Z300.218° NW2025-07-01 14:57:59.317Z39.27° NE36.264°2025-07-01 14:59:59.317Z84.756° E
4 mins2025-07-01 16:31:59.317Z270.649° WNW2025-07-01 16:33:59.317Z188.184° SSW34.092°2025-07-01 16:35:59.317Z135.765° SSE
|